{"data":{"norad_id":66249,"epoch":"2026-05-24T21:07:56.973792Z","epoch_age_seconds":88558,"freshness":"FRESH","line1":"1 66249U 25245R   26144.88052053  .00017899  00000+0  61479-3 0  9996","line2":"2 66249  53.1588 289.8537 0001111  68.4168 291.6951 15.30211299 32706","mean_motion":15.30211299,"eccentricity":0.0001111,"inclination_deg":53.1588,"raan_deg":289.8537,"arg_perigee_deg":68.4168,"mean_anomaly_deg":291.6951,"bstar":0.00061479,"rev_number":3270,"period_min":94.104650837505,"perigee_km":474.4199291828,"apogee_km":475.94273651636,"semimajor_km":6853.3183328496,"source":"CELESTRAK","updated_at":"2026-05-25T13:38:21.136649Z"}}